• In Latvia
  • List of Countries
  • For 7 days
  • Water Temperature
  • Satellite Maps
  • Weather Map
  • Weather Widgets
  • user-avatar
    Login

    Hourly Weather Ordino

    Today, 20 January, Friday

    Time Temperature Precipitation Wind Pressure Humidity
    00:00 -8°C° 0 mm 1 mps 632 mmHg 83%
    01:00 -8°C° 0 mm 1 mps 632 mmHg 84%
    02:00 -8°C° 0 mm 1 mps 632 mmHg 85%
    03:00 -9°C° 0 mm 2 mps 631 mmHg 86%
    04:00 -9°C° 0.1 mm 2 mps 631 mmHg 86%
    05:00 -9°C° 0.1 mm 2 mps 631 mmHg 87%
    06:00 -9°C° 0.1 mm 2 mps 632 mmHg 88%
    07:00 -7°C° 0.1 mm 2 mps 632 mmHg 86%
    08:00 -5°C° 0.1 mm 2 mps 633 mmHg 83%
    09:00 -3°C° 0.1 mm 2 mps 634 mmHg 80%
    10:00 -2°C° 0.1 mm 2 mps 634 mmHg 78%
    11:00 -1°C° 0.1 mm 3 mps 635 mmHg 76%
    12:00 0°C° 0.1 mm 3 mps 635 mmHg 74%
    13:00 0°C° 0.2 mm 3 mps 635 mmHg 76%
    14:00 +1°C° 0.2 mm 2 mps 635 mmHg 78%
    15:00 +1°C° 0.2 mm 2 mps 634 mmHg 80%
    16:00 -2°C° 0.3 mm 2 mps 634 mmHg 84%
    17:00 -4°C° 0.3 mm 2 mps 633 mmHg 89%
    18:00 -3°C° 0.3 mm 1 mps 633 mmHg 93%
    19:00 -3°C° 0.5 mm 1 mps 633 mmHg 93%
    20:00 -3°C° 0.5 mm 1 mps 633 mmHg 92%
    21:00 -3°C° 0.5 mm 1 mps 633 mmHg 92%
    22:00 -3°C° 0.5 mm 1 mps 633 mmHg 92%
    23:00 -3°C° 0.5 mm 1 mps 633 mmHg 92%

    Tomorrow, 21 January, Saturday

    Time Temperature Precipitation Wind Pressure Humidity
    00:00 -3°C° 0.5 mm 1 mps 633 mmHg 92%
    01:00 -3°C° 0.4 mm 1 mps 633 mmHg 91%
    02:00 -3°C° 0.4 mm 1 mps 633 mmHg 91%
    03:00 -3°C° 0.4 mm 1 mps 633 mmHg 91%
    04:00 -3°C° 0.3 mm 1 mps 633 mmHg 91%
    05:00 -5°C° 0.3 mm 2 mps 633 mmHg 92%
    06:00 -5°C° 0.3 mm 2 mps 632 mmHg 92%
    07:00 -4°C° 0 mm 2 mps 633 mmHg 89%
    08:00 -3°C° 0 mm 2 mps 633 mmHg 87%
    09:00 -2°C° 0 mm 2 mps 634 mmHg 84%
    10:00 -1°C° 0 mm 2 mps 634 mmHg 81%
    11:00 +1°C° 0 mm 2 mps 634 mmHg 77%
    12:00 +2°C° 0 mm 2 mps 635 mmHg 73%
    13:00 +2°C° 0 mm 2 mps 634 mmHg 74%
    14:00 +1°C° 0 mm 2 mps 634 mmHg 75%
    15:00 +1°C° 0 mm 2 mps 633 mmHg 76%
    16:00 -2°C° 0 mm 2 mps 633 mmHg 81%
    17:00 -4°C° 0 mm 2 mps 632 mmHg 86%
    18:00 -5°C° 0 mm 2 mps 631 mmHg 90%
    19:00 -6°C° 0 mm 2 mps 631 mmHg 88%
    20:00 -6°C° 0 mm 2 mps 631 mmHg 86%
    21:00 -7°C° 0 mm 2 mps 631 mmHg 84%
    22:00 -7°C° 0 mm 2 mps 631 mmHg 81%
    23:00 -7°C° 0 mm 2 mps 631 mmHg 78%

    Day after tomorrow, 22 January, Sunday

    Time Temperature Precipitation Wind Pressure Humidity
    00:00 -7°C° 0 mm 2 mps 631 mmHg 75%
    01:00 -6°C° 0 mm 2 mps 631 mmHg 74%
    02:00 -6°C° 0 mm 2 mps 631 mmHg 73%
    03:00 -6°C° 0 mm 2 mps 631 mmHg 71%
    04:00 -6°C° 0.1 mm 2 mps 631 mmHg 72%
    05:00 -6°C° 0.1 mm 2 mps 631 mmHg 72%
    06:00 -5°C° 0.1 mm 2 mps 630 mmHg 73%
    07:00 -5°C° 0.4 mm 2 mps 631 mmHg 75%
    08:00 -4°C° 0.4 mm 2 mps 631 mmHg 76%
    09:00 -4°C° 0.4 mm 2 mps 632 mmHg 78%
    10:00 -3°C° 0.3 mm 2 mps 632 mmHg 77%
    11:00 -2°C° 0.3 mm 2 mps 632 mmHg 77%
    12:00 -1°C° 0.3 mm 2 mps 632 mmHg 76%
    13:00 -1°C° 0.2 mm 2 mps 632 mmHg 77%
    14:00 -1°C° 0.2 mm 2 mps 632 mmHg 78%
    15:00 -1°C° 0.2 mm 2 mps 632 mmHg 79%
    16:00 0°C° 0.1 mm 1 mps 631 mmHg 83%
    17:00 -2°C° 0.1 mm 1 mps 631 mmHg 88%
    18:00 -3°C° 0.1 mm 1 mps 630 mmHg 92%
    19:00 -3°C° 0.2 mm 1 mps 631 mmHg 92%
    20:00 -5°C° 0.2 mm 2 mps 631 mmHg 92%
    21:00 -5°C° 0.2 mm 2 mps 631 mmHg 91%
    22:00 -5°C° 0.2 mm 2 mps 631 mmHg 91%
    23:00 -5°C° 0.2 mm 2 mps 631 mmHg 91%

    23 January, Monday

    Time Temperature Precipitation Wind Pressure Humidity
    00:00 -5°C° 0.2 mm 2 mps 631 mmHg 90%
    01:00 -5°C° 0.1 mm 2 mps 630 mmHg 90%
    02:00 -5°C° 0.1 mm 2 mps 630 mmHg 90%
    03:00 -6°C° 0.1 mm 2 mps 630 mmHg 90%
    04:00 -5°C° 0.4 mm 2 mps 630 mmHg 89%
    05:00 -5°C° 0.4 mm 2 mps 630 mmHg 88%
    06:00 -5°C° 0.4 mm 2 mps 630 mmHg 88%
    07:00 -4°C° 0.3 mm 2 mps 631 mmHg 86%
    08:00 -4°C° 0.3 mm 2 mps 631 mmHg 84%
    09:00 -3°C° 0.3 mm 2 mps 632 mmHg 83%
    10:00 -3°C° 0.2 mm 2 mps 632 mmHg 80%
    11:00 -2°C° 0.2 mm 2 mps 632 mmHg 78%
    12:00 -1°C° 0.2 mm 2 mps 632 mmHg 76%
    13:00 -1°C° 0.2 mm 2 mps 632 mmHg 78%
    14:00 -1°C° 0.2 mm 2 mps 632 mmHg 79%
    15:00 -2°C° 0.2 mm 2 mps 631 mmHg 81%
    16:00 -3°C° 0.2 mm 2 mps 631 mmHg 84%
    17:00 -4°C° 0.2 mm 2 mps 631 mmHg 87%
    18:00 -5°C° 0.2 mm 2 mps 631 mmHg 90%
    19:00 -5°C° 0.1 mm 2 mps 631 mmHg 89%
    20:00 -5°C° 0.1 mm 2 mps 631 mmHg 89%
    21:00 -5°C° 0.1 mm 2 mps 631 mmHg 88%
    22:00 -7°C° 0 mm 3 mps 631 mmHg 87%
    23:00 -7°C° 0 mm 3 mps 631 mmHg 87%

    24 January, Tuesday

    Time Temperature Precipitation Wind Pressure Humidity
    00:00 -7°C° 0 mm 3 mps 630 mmHg 86%
    01:00 -7°C° 0 mm 3 mps 630 mmHg 85%
    02:00 -8°C° 0 mm 3 mps 630 mmHg 84%
    03:00 -8°C° 0 mm 3 mps 630 mmHg 83%
    04:00 -8°C° 0 mm 3 mps 630 mmHg 81%
    05:00 -8°C° 0 mm 3 mps 630 mmHg 79%
    06:00 -9°C° 0 mm 3 mps 630 mmHg 76%
    07:00 -8°C° 0 mm 3 mps 631 mmHg 73%
    08:00 -7°C° 0 mm 3 mps 631 mmHg 70%
    09:00 -6°C° 0 mm 3 mps 632 mmHg 66%
    10:00 -4°C° 0 mm 3 mps 632 mmHg 64%
    11:00 -2°C° 0 mm 3 mps 633 mmHg 62%
    12:00 0°C° 0 mm 3 mps 633 mmHg 60%
    13:00 -1°C° 0 mm 3 mps 633 mmHg 62%
    14:00 -1°C° 0 mm 3 mps 633 mmHg 64%
    15:00 -1°C° 0 mm 3 mps 633 mmHg 66%
    16:00 -3°C° 0 mm 2 mps 632 mmHg 70%
    17:00 -6°C° 0 mm 2 mps 632 mmHg 74%
    18:00 -8°C° 0 mm 2 mps 631 mmHg 78%
    19:00 -8°C° 0 mm 2 mps 631 mmHg 76%
    20:00 -8°C° 0 mm 2 mps 632 mmHg 74%
    21:00 -8°C° 0 mm 2 mps 632 mmHg 72%
    22:00 -8°C° 0 mm 2 mps 632 mmHg 70%
    23:00 -9°C° 0 mm 2 mps 631 mmHg 69%

    25 January, Wednesday

    Time Temperature Precipitation Wind Pressure Humidity
    00:00 -9°C° 0 mm 2 mps 631 mmHg 67%
    01:00 -9°C° 0 mm 2 mps 631 mmHg 66%
    02:00 -10°C° 0 mm 2 mps 631 mmHg 64%
    03:00 -9°C° 0 mm 1 mps 631 mmHg 63%
    04:00 -10°C° 0 mm 1 mps 630 mmHg 62%
    05:00 -10°C° 0 mm 1 mps 630 mmHg 61%
    06:00 -10°C° 0 mm 1 mps 630 mmHg 60%
    07:00 -7°C° 0 mm 1 mps 631 mmHg 58%
    08:00 -4°C° 0 mm 1 mps 633 mmHg 56%
    09:00 -2°C° 0 mm 0 mps 634 mmHg 53%
    10:00 +1°C° 0 mm 1 mps 635 mmHg 54%
    11:00 +2°C° 0 mm 1 mps 635 mmHg 55%
    12:00 +4°C° 0 mm 1 mps 636 mmHg 56%
    13:00 +4°C° 0 mm 1 mps 635 mmHg 59%
    14:00 +3°C° 0 mm 1 mps 635 mmHg 63%
    15:00 +3°C° 0 mm 1 mps 635 mmHg 66%
    16:00 -1°C° 0 mm 1 mps 633 mmHg 74%
    17:00 -6°C° 0 mm 0 mps 632 mmHg 82%
    18:00 -10°C° 0 mm 0 mps 630 mmHg 89%
    19:00 -9°C° 0 mm 1 mps 630 mmHg 86%
    20:00 -9°C° 0 mm 1 mps 631 mmHg 83%
    21:00 -9°C° 0 mm 1 mps 631 mmHg 80%
    22:00 -8°C° 0 mm 1 mps 631 mmHg 79%
    23:00 -8°C° 0 mm 1 mps 631 mmHg 77%
    Show more